Volver al catálogo

COSMOS 1191 DEB

ActivoHEO
NORAD 12834·DEBRIS·🇷🇺 Russia

Lanzado Jul 2, 1980 desde Plesetsk Cosmodrome

Loading…

Próximos Pases (próximas 24 horas)

TLE

ActualizadoSource: Space-Track

Época: Sep 14, 2026, 02:02 UTC

1 12834U 80057F   26257.08525546  .00000150  00000-0  00000-0 0  9991
2 12834  65.7604  94.5543 6625586  21.6529 356.7886  2.00151230243063

Sigue COSMOS 1191 DEB en tiempo real con AllMySat

Download on the App Store